Precipitable_Water
1.34 1.31 1.25 1.22 1.15 1.09 1.02 0.90 0.79 0.67 0.68 0.83 0.93 1.12 1.16 1.21 1.20 1.18 1.15 1.16 1.16 1.15 1.12 1.11 1.10 1.14 1.20 1.25 1.28 1.23 1.23 1.23 1.27 1.22 1.20 1.16 1.09 1.04
1.29 1.34 1.24 1.30 1.22 1.16 1.09 0.99 0.89 0.80 0.69 0.82 0.84 0.90 0.99 1.07 1.13 1.17 1.20 1.19 1.18 1.16 1.16 1.13 1.10 1.13 1.12 1.15 1.18 1.20 1.22 1.18 1.15 1.13 1.15 1.16 1.16 1.11
1.26 1.24 1.31 1.32 1.29 1.23 1.18 1.06 0.95 0.88 0.79 0.83 0.89 0.89 0.89 0.93 1.04 1.16 1.20 1.17 1.14 1.14 1.14 1.14 1.13 1.12 1.13 1.11 1.09 1.13 1.17 1.15 1.09 1.08 1.06 1.10 1.15 1.17
1.20 1.25 1.28 1.29 1.29 1.31 1.31 1.23 1.08 0.92 0.84 0.82 0.86 0.86 0.84 0.88 0.96 1.01 1.08 1.10 1.09 1.08 1.11 1.12 1.14 1.12 1.08 1.10 1.11 1.11 1.10 1.03 1.02 1.02 1.05 1.07 1.07 1.10
1.15 1.21 1.18 1.23 1.26 1.28 1.30 1.24 1.23 1.12 0.96 0.87 0.79 0.88 0.92 0.91 0.90 0.92 0.90 0.91 0.97 1.03 1.09 1.09 1.07 1.04 1.04 1.06 1.05 1.09 1.07 1.04 0.99 0.94 0.98 1.04 1.05 1.03
1.07 1.18 1.18 1.18 1.19 1.24 1.23 1.27 1.24 1.19 1.03 0.91 0.84 0.82 0.85 0.86 0.90 0.81 0.76 0.84 0.85 0.98 1.02 0.98 0.92 0.93 1.03 1.09 1.07 1.06 1.04 1.03 1.03 1.03 1.01 0.98 0.95 0.95
0.91 1.23 1.28 1.26 1.22 1.24 1.21 1.19 1.19 1.17 1.09 0.99 0.86 0.83 0.82 0.80 0.79 0.83 0.78 0.84 0.91 0.92 0.87 0.86 0.94 0.99 1.03 1.04 1.08 1.10 1.10 1.10 1.05 1.04 1.02 1.00 0.96 0.98
0.82 1.05 1.26 1.22 1.21 1.21 1.20 1.25 1.23 1.19 1.11 1.01 0.89 0.80 0.80 0.81 0.83 0.84 0.86 0.85 0.77 0.93 0.85 0.83 0.93 0.96 1.03 1.06 1.08 1.10 1.08 1.04 1.00 0.99 0.99 0.96 0.94 0.95
0.77 0.89 1.15 1.20 1.26 1.25 1.21 1.22 1.25 1.22 1.23 1.08 0.90 0.83 0.84 0.90 0.95 0.89 0.93 0.91 0.82 0.91 0.92 0.85 0.96 0.92 1.00 1.05 1.09 1.11 1.09 1.05 1.01 0.96 0.94 0.91 0.89 0.88
0.68 0.92 0.95 1.20 1.24 1.19 1.14 1.14 1.16 1.23 1.24 1.18 1.03 0.97 0.98 1.05 1.01 0.95 1.01 0.97 0.98 1.01 0.99 0.83 0.94 0.91 1.01 1.11 1.10 1.06 1.04 1.02 0.98 0.95 0.93 0.91 0.89 0.90
0.59 0.82 1.05 1.06 1.11 1.16 1.06 1.04 1.10 1.15 1.28 1.26 1.22 1.10 1.12 1.10 1.13 1.09 1.02 0.97 0.92 0.95 1.06 0.98 0.92 0.88 0.93 1.00 1.02 1.00 0.95 0.92 0.93 0.93 0.90 0.88 0.86 0.88
0.50 0.74 0.88 0.94 1.00 1.03 1.02 1.06 1.01 1.08 1.16 1.21 1.23 1.23 1.18 1.17 1.21 1.16 1.09 0.99 0.97 0.94 1.09 1.01 0.99 0.94 0.81 0.92 0.92 0.92 0.92 0.87 0.88 0.91 0.89 0.86 0.87 0.87
0.52 0.73 0.85 0.91 0.96 1.05 1.06 1.10 1.10 1.18 1.13 1.15 1.17 1.19 1.14 1.15 1.19 1.17 1.18 1.13 1.03 1.04 1.11 1.08 0.96 0.93 0.82 0.74 0.78 0.82 0.82 0.81 0.82 0.87 0.84 0.86 0.87 0.86
0.66 0.80 0.92 1.00 1.01 1.03 1.05 1.12 1.14 1.16 1.14 1.12 1.11 1.10 1.08 1.14 1.17 1.20 1.23 1.23 1.20 1.14 1.13 1.10 0.96 0.90 0.80 0.73 0.69 0.74 0.75 0.75 0.77 0.79 0.82 0.84 0.86 0.87
0.71 0.74 0.92 1.00 1.04 1.07 1.10 1.12 1.16 1.14 1.06 1.04 1.07 1.08 1.12 1.18 1.19 1.15 1.16 1.16 1.14 1.13 1.09 1.00 0.93 0.89 0.81 0.74 0.69 0.71 0.73 0.76 0.78 0.77 0.78 0.80 0.80 0.82
0.79 0.82 0.89 0.95 1.08 1.08 1.10 1.12 1.09 1.12 1.07 1.04 1.04 1.07 1.12 1.11 1.09 1.12 1.07 1.04 1.00 0.96 0.97 0.97 0.92 0.89 0.78 0.74 0.77 0.73 0.76 0.71 0.75 0.76 0.76 0.78 0.80 0.81
0.70 0.76 0.88 0.89 0.97 0.96 1.04 1.02 1.03 1.03 1.00 1.05 1.00 1.01 0.98 1.01 1.03 1.06 1.03 0.97 0.88 0.84 0.81 0.82 0.85 0.84 0.79 0.81 0.75 0.73 0.73 0.73 0.75 0.74 0.74 0.73 0.76 0.78
0.69 0.70 0.77 0.78 0.84 0.91 0.93 0.94 0.95 0.97 0.95 0.98 0.99 0.97 0.94 0.96 0.96 0.94 0.91 0.86 0.79 0.77 0.75 0.78 0.78 0.76 0.75 0.76 0.78 0.71 0.71 0.71 0.72 0.73 0.72 0.69 0.69 0.72
0.64 0.64 0.65 0.73 0.76 0.87 0.92 0.92 0.91 0.95 0.94 0.97 0.94 0.89 0.93 0.92 0.89 0.86 0.83 0.80 0.77 0.78 0.78 0.79 0.78 0.72 0.63 0.58 0.67 0.74 0.68 0.69 0.69 0.67 0.67 0.66 0.65 0.66
0.59 0.55 0.68 0.68 0.76 0.82 0.81 0.85 0.85 0.91 0.93 0.94 0.96 0.97 0.94 0.90 0.87 0.84 0.82 0.79 0.76 0.76 0.76 0.76 0.74 0.72 0.66 0.63 0.62 0.65 0.72 0.67 0.66 0.64 0.63 0.64 0.65 0.65
0.50 0.57 0.64 0.66 0.72 0.77 0.79 0.83 0.84 0.87 0.86 0.88 0.88 0.88 0.89 0.87 0.83 0.83 0.82 0.79 0.75 0.73 0.69 0.68 0.70 0.73 0.71 0.71 0.62 0.60 0.63 0.67 0.66 0.61 0.59 0.56 0.55 0.54
0.47 0.51 0.55 0.61 0.63 0.66 0.71 0.75 0.76 0.79 0.80 0.81 0.83 0.82 0.81 0.80 0.78 0.77 0.75 0.73 0.71 0.70 0.66 0.66 0.67 0.67 0.64 0.62 0.58 0.57 0.57 0.59 0.61 0.61 0.60 0.57 0.52 0.47
0.42 0.46 0.51 0.55 0.56 0.60 0.64 0.67 0.68 0.72 0.73 0.75 0.75 0.74 0.73 0.71 0.71 0.71 0.70 0.69 0.67 0.64 0.62 0.60 0.61 0.61 0.59 0.57 0.55 0.53 0.53 0.52 0.52 0.51 0.51 0.53 0.52 0.50
Wind_Speed
51 51 50 47 47 45 44 43 40 38 38 37 37 38 39 39 38 37 36 35 35 34 33 32 31 30 30 29 28 28 28 27 27 27 28 27 28 27
53 53 51 50 48 47 46 46 46 43 40 39 38 37 39 41 40 40 38 38 37 36 36 34 33 33 32 31 30 30 29 29 29 30 29 30 30 29
55 57 54 52 51 49 48 47 47 46 43 40 40 39 39 39 41 41 41 39 39 38 37 37 36 35 34 33 32 32 32 32 31 31 31 31 31 32
60 56 55 54 52 51 50 50 49 48 46 44 41 41 39 38 39 39 40 40 39 39 39 37 37 36 35 34 34 33 33 32 32 32 31 31 32 32
59 61 59 56 55 53 51 50 49 48 48 45 42 41 41 39 37 37 36 37 38 37 37 37 36 35 35 34 33 32 31 31 31 31 31 32 33 33
57 61 61 62 58 55 54 49 50 47 45 44 42 41 40 39 38 36 35 34 34 35 35 34 33 32 32 32 31 31 31 31 31 32 31 32 33 34
64 57 56 59 60 56 54 53 48 46 46 44 43 41 40 38 39 36 34 34 34 34 33 33 32 32 32 32 31 32 32 32 32 32 33 33 34 34
66 62 60 57 61 62 59 58 54 49 46 43 44 44 43 42 40 38 36 34 33 35 34 34 34 33 32 33 33 33 33 33 33 34 34 34 35 35
68 68 62 59 57 58 58 56 56 55 53 50 48 48 46 44 42 40 39 36 34 33 34 34 34 35 34 34 34 35 35 35 36 35 36 36 35 36
73 67 68 57 58 55 55 56 55 55 53 52 50 48 46 45 44 42 40 38 36 35 34 32 33 33 33 34 35 35 35 36 36 36 36 36 36 36
77 72 63 67 65 63 59 57 57 55 54 52 50 46 45 45 43 41 40 38 37 36 36 34 33 33 34 33 34 35 35 36 36 36 36 36 36 35
77 75 73 68 65 62 61 57 56 55 55 51 49 47 44 43 44 43 43 41 39 37 37 36 34 33 33 33 35 36 36 36 36 36 36 35 36 36
75 74 72 71 66 60 62 60 58 55 54 53 54 51 49 48 47 46 45 43 41 39 37 37 35 34 34 33 33 35 36 36 36 36 36 36 36 36
72 70 66 67 67 65 63 60 58 57 55 53 53 51 48 48 45 44 43 42 41 40 38 37 35 35 35 34 35 35 35 35 34 33 34 35 36 36
72 72 66 62 62 61 62 62 58 55 53 52 51 50 50 48 45 45 42 41 39 37 38 39 39 37 37 36 35 35 34 35 35 35 35 35 34 34
69 67 63 54 58 60 53 56 58 55 54 54 49 49 47 43 45 45 42 42 39 39 39 39 38 38 37 38 36 35 34 33 33 33 34 34 35 34
69 67 64 61 44 50 51 54 53 53 53 49 49 49 47 45 43 42 41 39 39 39 38 38 38 37 37 37 36 35 35 35 34 34 34 34 34 35
63 65 64 62 55 46 49 48 50 51 50 50 47 46 46 46 45 43 42 41 40 39 39 38 37 36 36 36 35 34 34 35 35 35 34 34 33 33
55 61 59 56 54 49 47 43 45 47 47 46 47 46 46 44 43 43 42 41 40 38 37 37 36 36 35 34 34 34 35 34 33 32 32 32 32 32
46 52 54 52 44 48 48 48 48 47 45 43 45 47 46 44 43 41 41 39 38 36 35 35 35 35 35 34 33 32 32 32 31 31 31 32 32 32
40 46 45 42 41 39 42 42 43 44 43 41 43 41 39 39 37 37 36 36 35 35 33 33 34 33 32 31 31 31 30 29 30 31 31 31 31 32
27 36 40 36 33 32 35 35 35 37 38 38 39 38 37 35 34 34 33 33 32 32 32 32 31 31 30 29 28 28 28 29 29 29 30 31 31 32
20 28 31 31 26 28 29 30 30 31 35 33 33 33 32 31 31 32 32 32 30 29 28 28 27 27 27 26 26 27 27 28 28 29 30 31 33 34
Wind_Direction
237 236 236 237 237 237 237 237 239 241 241 241 241 242 243 244 244 245 247 247 249 252 255 256 257 259 260 263 265 268 271 275 276 277 276 274 280 283
236 236 236 236 237 236 237 238 239 241 244 242 243 244 244 244 244 245 248 248 249 252 253 255 257 258 259 263 265 268 271 273 275 276 277 275 277 279
236 237 236 235 237 237 237 238 238 239 242 243 244 244 245 246 245 245 247 249 251 252 253 254 255 257 259 262 264 267 270 272 274 276 276 276 277 281
235 234 235 236 236 237 237 239 238 239 240 243 242 243 244 245 243 245 247 249 250 252 251 253 254 256 258 260 263 266 269 271 273 274 274 275 278 280
236 234 236 235 235 236 237 239 237 239 240 241 241 241 242 242 243 245 247 249 249 249 250 252 254 255 257 259 262 265 267 271 274 274 275 276 279 280
240 235 236 235 234 236 235 238 237 236 236 237 237 239 240 239 240 243 247 247 246 246 248 249 252 253 255 257 260 263 267 271 273 275 276 277 279 281
236 235 232 233 233 234 234 234 237 233 235 236 235 236 236 237 239 243 244 246 247 246 248 248 250 252 254 257 260 263 267 270 273 276 276 278 279 281
235 235 235 234 234 233 235 233 234 234 232 234 233 235 237 238 239 239 242 245 245 246 248 249 250 255 255 259 262 264 268 270 273 277 276 278 280 281
233 232 234 233 231 231 231 232 233 235 236 236 237 238 238 236 238 240 241 241 245 246 246 250 252 255 258 260 262 265 268 272 274 276 277 278 280 281
231 231 230 229 228 228 230 232 233 234 234 235 237 237 237 238 236 237 238 240 244 245 247 251 253 256 260 261 263 266 269 273 274 275 276 278 280 281
228 229 229 229 232 232 233 234 233 231 232 235 232 238 234 234 234 233 235 240 243 245 246 251 255 257 260 262 262 267 272 274 275 274 276 277 279 280
227 227 226 228 231 232 229 230 230 230 230 229 232 234 233 232 232 235 237 238 240 246 248 249 253 257 262 263 265 268 271 274 274 275 275 276 278 280
225 224 226 226 228 228 226 228 230 229 230 232 233 234 235 236 236 236 236 239 242 248 249 247 253 256 263 267 268 270 272 274 274 273 275 276 277 280
221 220 222 224 226 227 226 228 229 228 230 231 232 233 234 232 230 231 239 240 240 243 245 248 255 258 264 267 271 272 273 272 272 273 274 277 278 278
220 218 219 222 222 223 225 225 224 225 228 230 229 229 232 230 232 236 236 236 235 241 246 253 257 259 262 266 271 272 271 272 272 273 275 276 277 280
215 213 214 216 218 218 222 220 223 224 225 228 229 230 229 230 234 232 231 230 242 248 252 253 256 259 261 266 267 270 270 270 272 272 276 276 277 278
211 211 210 210 217 218 221 220 222 223 223 225 227 226 229 230 229 227 229 237 245 248 251 253 256 259 262 263 265 268 267 269 272 274 275 278 277 278
207 209 211 215 217 216 221 218 220 220 222 223 226 228 229 229 231 235 238 243 245 248 250 252 254 257 261 262 265 265 267 269 272 273 275 276 277 278
204 206 209 211 213 217 219 218 219 220 223 226 228 228 224 227 230 234 239 242 245 247 248 249 251 257 260 261 263 268 268 268 268 272 273 275 277 278
201 203 205 208 215 218 223 223 225 224 225 227 225 221 227 228 232 235 236 238 240 243 246 250 251 255 259 261 263 265 267 265 267 271 273 276 277 279
196 196 197 203 209 212 216 222 220 221 224 220 215 224 227 223 225 228 230 234 238 242 243 249 253 254 256 260 262 264 264 265 267 270 274 276 278 280
182 190 196 201 208 213 212 211 212 208 210 212 216 220 219 223 226 226 232 234 236 240 247 250 249 252 257 258 259 260 261 265 270 272 274 277 279 281
144 173 180 188 198 200 203 206 208 206 207 212 219 217 219 222 227 232 234 233 236 242 243 245 249 251 253 255 257 260 263 266 269 273 276 279 281 282